D4539 Weather Reports


time (UTC)temp
C
wind
direction
speed
KPH
gust
KPH
rain 1hr
cm
rain 24hr
cm
rain mn
cm
humidity
%
barometer
mb
20260906095510 18 355 0.0 0.0 0.00 0.00 0.00 96 1015.3
20260906094517 17 355 0.0 0.0 0.00 0.00 0.00 95 1016.0
20260906093523 17 355 0.0 0.0 0.00 0.00 0.00 95 1015.9
20260906092509 17 355 0.0 0.0 0.00 0.00 0.00 95 1015.8
20260906091516 17 355 0.0 3.2 0.00 0.00 0.00 94 1015.7
20260906090526 18 355 1.6 4.8 0.00 0.00 0.00 95 1015.6
20260906085512 18 355 3.2 4.8 0.00 0.00 0.00 94 1015.7
20260906084517 18 355 0.0 4.8 0.00 0.00 0.00 95 1015.5
20260906083523 18 355 0.0 4.8 0.00 0.00 0.00 95 1015.4
20260906082531 18 355 1.6 8.0 0.00 0.00 0.00 95 1015.6
20260906081517 18 300 4.8 6.4 0.00 0.00 0.00 94 1015.5
20260906080525 18 300 0.0 0.0 0.00 0.00 0.00 95 1015.7
20260906075516 17 300 0.0 4.8 0.00 0.00 0.00 95 1015.7
20260906074508 17 300 3.2 6.4 0.00 0.00 0.00 93 1015.5
20260906073535 18 298 0.0 1.6 0.00 0.00 0.00 92 1015.7
20260906072522 18 298 1.6 3.2 0.00 0.00 0.00 92 1015.6
20260906071515 18 298 3.2 6.4 0.00 0.00 0.00 92 1015.5
20260906070521 19 298 4.8 8.0 0.00 0.00 0.00 91 1015.6
20260906065514 19 299 3.2 6.4 0.00 0.00 0.00 92 1015.5
20260906064521 19 299 4.8 6.4 0.00 0.00 0.00 91 1015.7
20260906063509 19 299 4.8 6.4 0.00 0.00 0.00 91 1016.0
20260906062519 20 300 3.2 8.0 0.00 0.00 0.00 91 1016.1
20260906061528 20 301 0.0 6.4 0.00 0.00 0.00 90 1016.1
20260906060516 20 298 4.8 9.7 0.00 0.00 0.00 90 1016.2
20260906055524 20 304 6.4 11.3 0.00 0.00 0.00 89 1016.2
20260906054514 20 298 6.4 14.5 0.00 0.00 0.00 88 1016.2
20260906053522 20 299 8.0 14.5 0.00 0.00 0.00 88 1016.3
20260906052510 20 302 6.4 11.3 0.00 0.00 0.00 89 1016.4
20260906051514 20 313 0.0 4.8 0.00 0.00 0.00 89 1016.3
20260906050522 20 315 0.0 4.8 0.00 0.00 0.00 89 1016.5
20260906045509 20 315 1.6 4.8 0.00 0.00 0.00 89 1016.6
20260906044517 20 309 0.0 4.8 0.00 0.00 0.00 89 1016.5
20260906043522 20 309 0.0 3.2 0.00 0.00 0.00 89 1016.5
20260906042508 20 310 1.6 6.4 0.00 0.00 0.00 89 1016.5
20260906041516 20 311 1.6 6.4 0.00 0.00 0.00 90 1016.4
20260906040525 20 306 1.6 6.4 0.00 0.00 0.00 90 1016.5
20260906035513 20 306 0.0 6.4 0.00 0.00 0.00 90 1016.4
20260906034520 20 305 3.2 6.4 0.00 0.00 0.00 90 1016.6
20260906033507 20 305 3.2 4.8 0.00 0.00 0.00 90 1016.7
20260906032514 20 304 0.0 4.8 0.00 0.00 0.00 90 1016.7
20260906031544 20 304 3.2 4.8 0.00 0.00 0.00 89 1016.7
20260906030510 20 305 0.0 4.8 0.00 0.00 0.00 89 1016.8
20260906025540 20 305 3.2 6.4 0.00 0.00 0.00 88 1016.8
20260906024526 20 305 0.0 0.0 0.00 0.00 0.00 88 1017.0
20260906023511 20 305 0.0 0.0 0.00 0.00 0.00 88 1016.9
20260906022536 20 305 0.0 0.0 0.00 0.00 0.00 87 1016.8
20260906021504 20 305 0.0 4.8 0.00 0.00 0.00 88 1016.7
20260906020514 20 305 0.0 4.8 0.00 0.00 0.00 87 1016.6
20260906015520 20 305 3.2 4.8 0.00 0.00 0.00 86 1016.8
20260906014508 21 305 0.0 9.7 0.00 0.00 0.00 85 1016.5
20260906013535 21 310 6.4 8.0 0.00 0.00 0.00 83 1016.5
20260906012522 21 312 1.6 8.0 0.00 0.00 0.00 83 1016.5
20260906011509 21 314 3.2 4.8 0.00 0.00 0.00 82 1016.4
20260906010520 22 314 3.2 9.7 0.00 0.00 0.00 82 1016.5
20260906005508 22 331 4.8 9.7 0.00 0.00 0.00 82 1016.3
20260906004515 22 360 4.8 9.7 0.00 0.00 0.00 82 1016.0
20260906003523 22 342 3.2 9.7 0.00 0.00 0.00 81 1015.8
20260906002515 22 338 1.6 8.0 0.00 0.00 0.00 82 1015.6
20260906001524 22 323 3.2 8.0 0.00 0.00 0.00 80 1015.7
20260906000534 23 307 6.4 8.0 0.00 0.00 0.00 78 1015.5
20260905235524 23 310 8.0 12.9 0.00 0.00 0.00 76 1015.6
20260905234513 23 313 8.0 11.3 0.00 0.00 0.00 76 1015.5
20260905233544 23 306 1.6 11.3 0.00 0.00 0.00 75 1015.5
20260905232518 24 306 4.8 11.3 0.00 0.00 0.00 74 1015.3
20260905231507 24 310 8.0 11.3 0.00 0.00 0.00 72 1015.2
20260905230519 25 309 9.7 12.9 0.00 0.00 0.00 71 1015.5
20260905225509 25 309 8.0 14.5 0.00 0.00 0.00 70 1015.6
20260905224543 25 287 9.7 14.5 0.00 0.00 0.00 69 1015.5
20260905223513 25 299 4.8 17.7 0.00 0.00 0.00 68 1015.5
20260905222523 26 300 11.3 19.3 0.00 0.00 0.00 67 1015.5
20260905221513 26 15 8.0 17.7 0.00 0.00 0.00 66 1015.6
20260905220517 26 313 12.9 19.3 0.00 0.00 0.00 64 1015.6
20260905215521 26 317 8.0 16.1 0.00 0.00 0.00 65 1015.7
20260905214525 26 338 11.3 20.9 0.00 0.00 0.00 61 1015.7
20260905213507 26 307 8.0 22.5 0.00 0.00 0.00 63 1015.6
20260905212511 26 306 8.0 14.5 0.00 0.00 0.00 64 1015.6
20260905211533 26 355 8.0 20.9 0.00 0.00 0.00 62 1015.7
20260905210516 26 360 8.0 20.9 0.00 0.00 0.00 63 1015.5
20260905205523 26 360 9.7 25.7 0.00 0.00 0.00 63 1015.5
20260905204526 26 313 11.3 25.7 0.00 0.00 0.00 64 1015.2
20260905203512 26 295 12.9 29.0 0.00 0.00 0.00 64 1015.4
20260905202514 26 294 11.3 25.7 0.00 0.00 0.00 65 1015.4
20260905201515 26 300 11.3 24.1 0.00 0.00 0.00 68 1015.4
20260905200523 25 290 12.9 17.7 0.00 0.00 0.00 68 1015.3
20260905195517 25 280 12.9 16.1 0.00 0.00 0.00 70 1015.1
20260905194520 25 286 9.7 24.1 0.00 0.00 0.00 72 1015.1
20260905193522 24 296 9.7 16.1 0.00 0.00 0.00 72 1014.9
20260905192508 24 309 14.5 20.9 0.00 0.00 0.00 71 1014.9
20260905191513 23 320 14.5 32.2 0.00 0.00 0.00 71 1014.7
20260905190516 24 279 12.9 27.4 0.00 0.00 0.00 69 1014.7
20260905185515 23 315 16.1 24.1 0.00 0.00 0.00 70 1014.9
20260905184518 23 279 9.7 20.9 0.00 0.00 0.00 77 1015.0
20260905183520 22 286 11.3 24.1 0.00 0.00 0.00 78 1015.2
20260905182505 21 299 16.1 24.1 0.00 0.00 0.00 78 1015.2
20260905181531 21 263 11.3 20.9 0.00 0.00 0.00 83 1015.5
20260905180513 21 234 9.7 16.1 0.00 0.00 0.00 85 1015.4
20260905175518 21 300 9.7 17.7 0.00 0.00 0.00 84 1016.0
20260905174521 20 355 8.0 17.7 0.00 0.00 0.00 84 1016.3
20260905173522 21 345 9.7 22.5 0.00 0.00 0.00 84 1016.9
20260905172524 21 15 9.7 22.5 0.00 0.00 0.00 83 1017.4
20260905171512 22 298 9.7 20.9 0.00 0.00 0.00 81 1017.9
20260905170516 23 5 14.5 35.4 0.00 0.00 0.00 77 1018.4
20260905165505 26 267 22.5 33.8 0.00 0.00 0.00 76 1018.3
20260905164540 26 294 9.7 32.2 0.00 0.00 0.00 75 1017.9
20260905163530 27 320 16.1 30.6 0.00 0.00 0.00 74 1017.9
20260905162539 27 331 11.3 24.1 0.00 0.00 0.00 72 1017.8
20260905161510 27 348 9.7 24.1 0.00 0.00 0.00 72 1017.5
20260905160524 28 303 17.7 24.1 0.00 0.00 0.00 69 1017.2
20260905155514 28 5 9.7 38.6 0.00 0.00 0.00 71 1017.3
20260905154545 28 324 14.5 27.4 0.00 0.00 0.00 71 1017.4
20260905153514 27 313 9.7 27.4 0.00 0.00 0.00 75 1017.5
20260905152525 27 310 8.0 29.0 0.00 0.00 0.00 76 1017.5
20260905151514 27 346 8.0 19.3 0.00 0.00 0.00 76 1017.4
20260905150505 27 305 9.7 27.4 0.00 0.00 0.00 79 1017.3
20260905145519 27 306 11.3 19.3 0.00 0.00 0.00 77 1017.2
20260905144526 26 313 9.7 24.1 0.00 0.00 0.00 78 1017.4
20260905143534 26 315 16.1 29.0 0.00 0.00 0.00 78 1017.4
20260905142521 26 305 20.9 29.0 0.00 0.00 0.00 77 1017.4
20260905141529 26 298 16.1 27.4 0.00 0.00 0.00 79 1017.4
20260905140514 26 327 14.5 35.4 0.00 0.00 0.00 79 1017.4
20260905135541 26 306 19.3 27.4 0.00 0.00 0.00 79 1017.4
20260905134508 26 283 14.5 22.5 0.00 0.00 0.00 79 1017.3
20260905133529 25 296 8.0 19.3 0.00 0.00 0.00 79 1017.4
20260905132516 25 273 9.7 19.3 0.00 0.00 0.00 81 1017.5
20260905131507 25 321 9.7 19.3 0.00 0.00 0.00 81 1017.6
20260905130517 25 309 8.0 14.5 0.00 0.00 0.00 83 1017.7
20260905125505 24 300 6.4 9.7 0.00 0.00 0.00 85 1017.9
20260905124534 24 298 0.0 9.7 0.00 0.00 0.00 84 1017.8
20260905123520 23 298 8.0 11.3 0.00 0.00 0.00 83 1017.9
20260905122526 23 304 4.8 11.3 0.00 0.00 0.00 86 1017.9
20260905121514 23 302 6.4 12.9 0.00 0.00 0.00 85 1017.9
20260905120523 22 308 8.0 12.9 0.00 0.00 0.00 85 1017.7
20260905115511 22 302 8.0 16.1 0.00 0.00 0.00 86 1017.6
20260905114538 21 309 9.7 16.1 0.00 0.00 0.00 87 1017.5
20260905113523 21 311 11.3 14.5 0.00 0.00 0.00 88 1017.3
20260905112511 20 303 8.0 12.9 0.00 0.00 0.00 89 1017.4
20260905111542 20 298 4.8 11.3 0.00 0.00 0.00 90 1017.3
20260905110509 20 298 6.4 9.7 0.00 0.00 0.00 90 1017.2
20260905105521 20 299 6.4 12.9 0.00 0.00 0.00 90 1017.2
20260905104508 19 298 8.0 9.7 0.00 0.00 0.00 91 1017.2
20260905103514 19 298 4.8 8.0 0.00 0.00 0.00 91 1017.1
20260905102540 19 287 4.8 8.0 0.00 0.00 0.00 91 1017.2
20260905101526 19 285 4.8 6.4 0.00 0.00 0.00 91 1017.3
20260905100513 19 285 3.2 4.8 0.00 0.00 0.00 91 1017.2